When you browse on this site, cookies collect data to enhance your experience and personalize the content and advertising you see.
Visit our Privacy Policy to learn more. By continuing to use the site, you agree to this use of cookies and data.

Meteo pe oră la Dziadki

Astăzi, 26 Septembrie, Sâmbătă

Timp Temperatura Precipitaţii Vânt Presiune Umiditate
00:00 +17°C° 0 mm 5 m/s 737 mmHg 78%
01:00 +17°C° 0 mm 5 m/s 737 mmHg 77%
02:00 +18°C° 0 mm 4 m/s 737 mmHg 77%
03:00 +18°C° 0 mm 4 m/s 737 mmHg 77%
04:00 +18°C° 0 mm 4 m/s 737 mmHg 77%
05:00 +18°C° 0 mm 4 m/s 737 mmHg 77%
06:00 +17°C° 0 mm 5 m/s 736 mmHg 77%
07:00 +17°C° 0 mm 5 m/s 736 mmHg 77%
08:00 +19°C° 0 mm 6 m/s 737 mmHg 72%
09:00 +20°C° 0 mm 6 m/s 737 mmHg 68%
10:00 +22°C° 0 mm 7 m/s 737 mmHg 63%
11:00 +22°C° 0 mm 7 m/s 737 mmHg 60%
12:00 +23°C° 0 mm 8 m/s 737 mmHg 57%
13:00 +24°C° 0 mm 8 m/s 737 mmHg 54%
14:00 +24°C° 0 mm 7 m/s 737 mmHg 55%
15:00 +23°C° 0 mm 6 m/s 737 mmHg 57%
16:00 +23°C° 0 mm 6 m/s 737 mmHg 58%
17:00 +22°C° 0.1 mm 5 m/s 738 mmHg 59%
18:00 +22°C° 0.1 mm 5 m/s 738 mmHg 60%
19:00 +21°C° 0.1 mm 5 m/s 738 mmHg 61%
20:00 +21°C° 0.7 mm 5 m/s 738 mmHg 65%
21:00 +20°C° 0.7 mm 4 m/s 738 mmHg 68%
22:00 +20°C° 0.7 mm 4 m/s 738 mmHg 72%
23:00 +20°C° 0 mm 5 m/s 738 mmHg 69%

Mâine, 27 Septembrie, Duminică

Timp Temperatura Precipitaţii Vânt Presiune Umiditate
00:00 +19°C° 0 mm 5 m/s 738 mmHg 66%
01:00 +19°C° 0 mm 6 m/s 738 mmHg 64%
02:00 +19°C° 0 mm 6 m/s 738 mmHg 64%
03:00 +18°C° 0 mm 7 m/s 738 mmHg 65%
04:00 +18°C° 0 mm 7 m/s 738 mmHg 65%
05:00 +18°C° 0 mm 7 m/s 738 mmHg 65%
06:00 +18°C° 0 mm 7 m/s 738 mmHg 64%
07:00 +18°C° 0 mm 8 m/s 738 mmHg 63%
08:00 +20°C° 0 mm 8 m/s 738 mmHg 60%
09:00 +20°C° 0 mm 8 m/s 738 mmHg 57%
10:00 +21°C° 0 mm 9 m/s 739 mmHg 54%
11:00 +21°C° 0 mm 8 m/s 739 mmHg 55%
12:00 +20°C° 0 mm 7 m/s 739 mmHg 56%
13:00 +19°C° 0 mm 6 m/s 739 mmHg 57%
14:00 +19°C° 0.2 mm 6 m/s 739 mmHg 64%
15:00 +17°C° 0.2 mm 6 m/s 740 mmHg 71%
16:00 +16°C° 0.2 mm 6 m/s 740 mmHg 78%
17:00 +14°C° 0.3 mm 6 m/s 741 mmHg 81%
18:00 +13°C° 0.3 mm 6 m/s 741 mmHg 85%
19:00 +10°C° 0.3 mm 6 m/s 742 mmHg 88%
20:00 +10°C° 0 mm 5 m/s 743 mmHg 87%
21:00 +10°C° 0 mm 5 m/s 744 mmHg 86%
22:00 +9°C° 0 mm 5 m/s 744 mmHg 85%
23:00 +10°C° 0.1 mm 5 m/s 745 mmHg 85%

Poimâine, 28 Septembrie, Luni

Timp Temperatura Precipitaţii Vânt Presiune Umiditate
00:00 +10°C° 0.1 mm 5 m/s 745 mmHg 85%
01:00 +11°C° 0.1 mm 4 m/s 745 mmHg 85%
02:00 +10°C° 0 mm 5 m/s 746 mmHg 85%
03:00 +9°C° 0 mm 5 m/s 746 mmHg 85%
04:00 +9°C° 0 mm 5 m/s 747 mmHg 85%
05:00 +9°C° 0 mm 5 m/s 747 mmHg 84%
06:00 +9°C° 0 mm 5 m/s 747 mmHg 82%
07:00 +10°C° 0 mm 4 m/s 748 mmHg 81%
08:00 +12°C° 0 mm 5 m/s 748 mmHg 73%
09:00 +13°C° 0 mm 5 m/s 748 mmHg 65%
10:00 +15°C° 0 mm 5 m/s 749 mmHg 57%
11:00 +16°C° 0 mm 6 m/s 749 mmHg 53%
12:00 +16°C° 0 mm 6 m/s 749 mmHg 50%
13:00 +17°C° 0 mm 6 m/s 749 mmHg 47%
14:00 +16°C° 0 mm 5 m/s 749 mmHg 50%
15:00 +16°C° 0 mm 5 m/s 749 mmHg 54%
16:00 +15°C° 0 mm 4 m/s 749 mmHg 58%
17:00 +14°C° 0.4 mm 3 m/s 749 mmHg 67%
18:00 +13°C° 0.4 mm 3 m/s 749 mmHg 77%
19:00 +12°C° 0.4 mm 2 m/s 749 mmHg 87%
20:00 +13°C° 0 mm 2 m/s 748 mmHg 85%
21:00 +13°C° 0 mm 2 m/s 748 mmHg 82%
22:00 +13°C° 0 mm 2 m/s 748 mmHg 80%
23:00 +13°C° 0 mm 2 m/s 748 mmHg 82%

29 Septembrie, Marţi

Timp Temperatura Precipitaţii Vânt Presiune Umiditate
00:00 +13°C° 0 mm 2 m/s 748 mmHg 84%
01:00 +13°C° 0 mm 2 m/s 747 mmHg 86%
02:00 +13°C° 0 mm 2 m/s 747 mmHg 88%
03:00 +12°C° 0 mm 2 m/s 747 mmHg 90%
04:00 +12°C° 0 mm 2 m/s 747 mmHg 92%
05:00 +13°C° 0 mm 2 m/s 747 mmHg 90%
06:00 +12°C° 0 mm 3 m/s 747 mmHg 88%
07:00 +13°C° 0 mm 3 m/s 747 mmHg 87%
08:00 +13°C° 0.5 mm 3 m/s 746 mmHg 89%
09:00 +13°C° 0.5 mm 3 m/s 746 mmHg 90%
10:00 +13°C° 0.5 mm 3 m/s 746 mmHg 92%
11:00 +13°C° 0.5 mm 3 m/s 746 mmHg 92%
12:00 +13°C° 0.5 mm 3 m/s 746 mmHg 92%
13:00 +13°C° 0.5 mm 3 m/s 746 mmHg 92%
14:00 +13°C° 1.3 mm 2 m/s 746 mmHg 93%
15:00 +13°C° 1.3 mm 2 m/s 745 mmHg 94%
16:00 +13°C° 1.3 mm 2 m/s 745 mmHg 96%
17:00 +13°C° 1.4 mm 2 m/s 745 mmHg 96%
18:00 +13°C° 1.4 mm 2 m/s 745 mmHg 97%
19:00 +13°C° 1.4 mm 2 m/s 745 mmHg 97%
20:00 +13°C° 0.8 mm 2 m/s 745 mmHg 97%
21:00 +13°C° 0.8 mm 2 m/s 745 mmHg 97%
22:00 +13°C° 0.8 mm 2 m/s 744 mmHg 98%
23:00 +13°C° 0.8 mm 2 m/s 744 mmHg 98%

30 Septembrie, Miercuri

Timp Temperatura Precipitaţii Vânt Presiune Umiditate
00:00 +13°C° 0.8 mm 2 m/s 744 mmHg 98%
01:00 +13°C° 0.8 mm 2 m/s 744 mmHg 98%
02:00 +13°C° 0.5 mm 2 m/s 744 mmHg 98%
03:00 +13°C° 0.5 mm 2 m/s 743 mmHg 97%
04:00 +13°C° 0.5 mm 2 m/s 743 mmHg 97%
05:00 +13°C° 0.2 mm 2 m/s 743 mmHg 97%
06:00 +13°C° 0.2 mm 2 m/s 743 mmHg 97%
07:00 +13°C° 0.2 mm 2 m/s 743 mmHg 97%
08:00 +14°C° 0.8 mm 2 m/s 743 mmHg 97%
09:00 +14°C° 0.8 mm 2 m/s 743 mmHg 97%
10:00 +14°C° 0.8 mm 2 m/s 743 mmHg 96%
11:00 +14°C° 1 mm 2 m/s 743 mmHg 96%
12:00 +14°C° 1 mm 2 m/s 743 mmHg 96%
13:00 +14°C° 1 mm 1 m/s 743 mmHg 96%
14:00 +14°C° 0.5 mm 1 m/s 743 mmHg 96%
15:00 +14°C° 0.5 mm 1 m/s 743 mmHg 96%
16:00 +14°C° 0.5 mm 1 m/s 743 mmHg 96%
17:00 +14°C° 0.2 mm 1 m/s 743 mmHg 96%
18:00 +13°C° 0.2 mm 1 m/s 743 mmHg 97%
19:00 +13°C° 0.2 mm 1 m/s 743 mmHg 97%
20:00 +13°C° 0.1 mm 1 m/s 743 mmHg 97%
21:00 +13°C° 0.1 mm 1 m/s 743 mmHg 98%
22:00 +13°C° 0.1 mm 2 m/s 743 mmHg 98%
23:00 +13°C° 0.2 mm 2 m/s 743 mmHg 98%

1 Octombrie, Joi

Timp Temperatura Precipitaţii Vânt Presiune Umiditate
00:00 +13°C° 0.2 mm 2 m/s 743 mmHg 97%
01:00 +13°C° 0.2 mm 2 m/s 743 mmHg 97%
02:00 +13°C° 0.4 mm 2 m/s 743 mmHg 97%
03:00 +12°C° 0.4 mm 3 m/s 743 mmHg 97%
04:00 +12°C° 0.4 mm 3 m/s 743 mmHg 96%
05:00 +12°C° 0.3 mm 3 m/s 743 mmHg 96%
06:00 +12°C° 0.3 mm 3 m/s 743 mmHg 96%
07:00 +12°C° 0.3 mm 3 m/s 743 mmHg 96%
08:00 +12°C° 0.2 mm 3 m/s 743 mmHg 95%
09:00 +12°C° 0.2 mm 3 m/s 743 mmHg 94%
10:00 +14°C° 0.2 mm 2 m/s 744 mmHg 93%
11:00 +14°C° 0.2 mm 2 m/s 744 mmHg 91%
12:00 +14°C° 0.2 mm 2 m/s 744 mmHg 90%
13:00 +15°C° 0.2 mm 2 m/s 744 mmHg 89%
14:00 +15°C° 0.3 mm 2 m/s 744 mmHg 90%
15:00 +15°C° 0.3 mm 2 m/s 744 mmHg 90%
16:00 +15°C° 0.3 mm 2 m/s 744 mmHg 91%
17:00 +14°C° 0.1 mm 2 m/s 744 mmHg 92%
18:00 +14°C° 0.1 mm 2 m/s 745 mmHg 94%
19:00 +13°C° 0.1 mm 2 m/s 745 mmHg 95%
20:00 +13°C° 0 mm 2 m/s 745 mmHg 95%
21:00 +12°C° 0 mm 2 m/s 746 mmHg 95%
22:00 +12°C° 0 mm 2 m/s 746 mmHg 96%
23:00 +10°C° 0 mm 2 m/s 746 mmHg 95%
Arată mai mult